This is the latest recevied weather packets stored in our database for station/object SV1JSO-13. If no packets are shown the sender has not sent any weather packets the latest 10 day(s).
| Time | Temp. | Humidity | Pressure | Rain* | Wind** | Luminosity | Snow |
|---|---|---|---|---|---|---|---|
| 1788156000 | 28.33° C | 56% | 1009.8 hPa | 0 mm | - | 215 W/m² | - |
| 1788155700 | 27.78° C | 59% | 1009.8 hPa | 0 mm | - | 202 W/m² | - |
| 1788155400 | 27.22° C | 61% | 1009.8 hPa | 0 mm | - | 187 W/m² | - |
| 1788155100 | 27.22° C | 60% | 1009.8 hPa | 0 mm | - | 174 W/m² | - |
| 1788154800 | 27.22° C | 60% | 1009.8 hPa | 0 mm | - | 162 W/m² | - |
| 1788154500 | 27.22° C | 57% | 1009.8 hPa | 0 mm | - | 151 W/m² | - |
| 1788154200 | 27.22° C | 61% | 1009.7 hPa | 0 mm | - | 138 W/m² | - |
| 1788153901 | 27.22° C | 58% | 1009.7 hPa | 0 mm | - | 126 W/m² | - |
| 1788153600 | 27.78° C | 58% | 1009.7 hPa | 0 mm | - | 114 W/m² | - |
| 1788153300 | 27.22° C | 59% | 1009.7 hPa | 0 mm | - | 105 W/m² | - |
| 1788153000 | 27.22° C | 55% | 1009.6 hPa | 0 mm | - | 95 W/m² | - |
| 1788152700 | 27.78° C | 45% | 1009.7 hPa | 0 mm | - | 87 W/m² | - |
| 1788152400 | 27.22° C | 44% | 1009.5 hPa | 0 mm | - | 78 W/m² | - |
| 1788152100 | 26.67° C | 46% | 1009.6 hPa | 0 mm | - | 70 W/m² | - |
| 1788151800 | 26.11° C | 53% | 1009.6 hPa | 0 mm | - | 63 W/m² | - |
| 1788151500 | 25.56° C | 59% | 1009.4 hPa | 0 mm | - | 56 W/m² | - |
| 1788151200 | 25.56° C | 63% | 1009.5 hPa | 0 mm | - | 45 W/m² | - |
| 1788150900 | 25.56° C | 68% | 1009.4 hPa | 0 mm | - | 40 W/m² | - |
| 1788150600 | 25.56° C | 69% | 1009.4 hPa | 0 mm | - | 34 W/m² | - |
| 1788150300 | 25.56° C | 69% | 1009.3 hPa | 0 mm | - | 30 W/m² | - |
| 1788150000 | 25.56° C | 69% | 1009.2 hPa | 0 mm | - | 25 W/m² | - |
| 1788149700 | 25.56° C | 69% | 1009.4 hPa | 0 mm | - | 20 W/m² | - |
| 1788149400 | 25.56° C | 69% | 1009.2 hPa | 0 mm | - | 15 W/m² | - |
| 1788149100 | 25.56° C | 69% | 1009.3 hPa | 0 mm | - | 11 W/m² | - |
| 1788148800 | 25.56° C | 70% | 1009.2 hPa | 0 mm | - | 7 W/m² | - |
* Rain latest hour (hover to see other rain measurements)
** Current wind speed in m/s (hover to see current wind gust speed)